Showing default

COSMOS 2534 (GLONASS), 44299

Orbit data source: Space-Track

COSMOS 2534 (GLONASS), 44299 is a Commonwealth of Independent States-origin payload satellite in MEO that was launched on Mon, 27 May 2019 UTC via a SOYUZ-2-1B launch vehicle from the Plesetsk Missile And Space Complex (PKMTR). Payload-class satellites include a variety of spacecraft equipped with specific instruments for various scientific and technological missions. These include communications satellites like Starlink; space stations such as the ISS; scientific satellites like the Hubble; Earth observation satellites from companies like Planet Labs, Umbra, and HawkEye 360; GPS; miniature CubeSats for education and research; and military/defense satellites.

Loading next visibility...
Identifier
44299, 2019-030A
Orbit
MEO
Country
Flag of CISCIS
Related business
Manufacturer
Resehetnev ISS
Mission
Operational Defense Navigation
Bus & Motor
URAGAN, Unknown motor
Mass
1,450 kg wet, ~1,200 kg dry
Launch date (UTC)
2019-05-27 (7 years ago)
Launch vehicle
SOYUZ-2-1B
Launch site
Plesetsk Missile And Space Complex (PKMTR)
Object type
Payload
Rocket body
Debris
Shape & HBR
Cyl + 1 Ant + 2 Pan, 3.9 m
Radar Cross Section
8.467 m², Large (>1 m²)

Expand to show TLE details & history
Last TLE update: 15 hours ago

TLE from 15 hours ago
0 COSMOS 2534 (GLONASS)
1 44299U 19030A   26073.31676042  .00000002  00000-0  00000-0 0  9990
2 44299  64.3686 195.8081 0009957 279.3052 158.2774  2.13102462 52904
Epoch: 2026-03-14T07:36Z
TLE epoch observation values (Epoch: 2026-03-14T07:36:08.100Z)
Latitude
61.79001°
Longitude
-26.99432°
Altitude
19,163.349 km
Speed
3.95 km/s
True Right ascension
17h 15m 54s
True Declination
61° 44' 60"
Sunlit
Object was in daylight at epoch
Visualization orbit readout
Latitude
Unknown
Longitude
Unknown
Altitude
Unknown
Speed
Unknown
Apparent Right ascension
Unknown
Apparent Declination
Unknown
Sunlit
N/A
Visualization observer readout
Local Sidereal Time
03:35:48
Azimuth
Unknown
Elevation
Unknown
Doppler factor
Unknown
Orbital elements
Apogee altitude
19,154.885 km
Perigee altitude
19,104.09 km
Semi-major axis
25,507.625 km
Eccentricity
0.001
Inclination
64.3686°
RAAN
195.8081°
Arg. of periapsis
279.3052°
True anomaly
158.31958°
Mean anomaly
158.2774°
Eccentric anomaly
158.2985°
Mean motion
0.53277 °/min
Orbital period
675.72 mins
BSTAR
0
Loading maneuver chart data...
Computing Atmospheric mass density...
Loading historical data...
Loading historical data...
Loading historical data...
Loading historical data...
Loading historical data...
Loading historical data...
Loading historical data...
Other satellites on launch #30 in the year 2019 (2019-05-27 UTC)

Documentation

Showing up to 5 results
|